Home   Weather   Monaco   Past weeks
Flag for Monaco

Past Weather in Monaco, Monaco — Yesterday and Last 2 Weeks

Now
66 °F

Clear.


Feels Like: 66 °F
Forecast: 75 / 65 °F
Wind: 8 mph from North

Location: Nice Airport

Current Time: Oct 22, 2019 at 12:53:35 am

Latest Report: Oct 22, 2019 at 12:00 am


Visibility: 10 mi

Pressure: 30.12 "Hg

Humidity: 78%

Dew Point: 59 °F

Location of MonacoLocation

Past Weather in Monaco — Graph

°F

Monaco Temperature Yesterday

Maximum temperature yesterday: 68 °F (at 12:30 pm)
Minimum temperature yesterday: 64 °F (at 12:00 am)
Average temperature yesterday: 66 °F

High & Low Weather Summary for the Past Weeks

 TemperatureHumidityPressure
High75 °F (Oct 14, 1:30 pm)94% (Oct 15, 8:00 am)30.24 "Hg (Oct 15, 8:00 am)
Low57 °F (Oct 8, 8:00 am)41% (Oct 7, 5:30 pm)29.62 "Hg (Oct 7, 4:30 am)
Average66 °F73%30.03 "Hg
* Reported Oct 6 11:00 pm — Oct 21 11:30 pm, Monaco. Weather by CustomWeather, © 2019

Note: Actual official high and low records may vary slightly from our data, if they occured in-between our weather recording intervals... More about our weather records

Advertising

Monaco Weather History for the Previous 24 Hours

Scroll right to see more
 ConditionsComfort  
Time TempWeatherWind HumidityBarometerVisibility
11:30 pm
Mon, Oct 21
66 °FClear.6 mph78%30.12 "Hg10 mi
11:00 pm68 °FClear.7 mph73%30.12 "Hg10 mi
10:30 pm66 °FPassing clouds.8 mph78%30.09 "HgN/A
10:00 pm66 °FPassing clouds.6 mph78%30.09 "HgN/A
9:30 pm66 °FClear.6 mph83%30.12 "Hg10 mi
9:00 pm66 °FPassing clouds.6 mph83%30.12 "HgN/A
8:30 pm66 °FPassing clouds.7 mph83%30.12 "HgN/A
8:00 pm66 °FPartly cloudy.5 mph83%30.12 "HgN/A
7:30 pm68 °FPartly cloudy.7 mph78%30.09 "HgN/A
7:00 pm66 °FPassing clouds.6 mph88%30.12 "HgN/A
6:30 pm66 °FPartly sunny.7 mph88%30.09 "HgN/A
6:00 pm66 °FBroken clouds.3 mph83%30.09 "HgN/A
5:30 pm68 °FPartly sunny.No wind83%30.09 "HgN/A
5:00 pm68 °FPartly sunny.5 mph83%30.09 "HgN/A
4:30 pm68 °FBroken clouds.3 mph83%30.09 "HgN/A
4:00 pm68 °FPartly sunny.3 mph83%30.12 "HgN/A
3:30 pm68 °FPartly sunny.5 mph88%30.12 "HgN/A
3:00 pm68 °FPartly sunny.6 mph88%30.12 "HgN/A
2:30 pm68 °FPartly sunny.5 mph88%30.12 "HgN/A
2:00 pm66 °FLight rain. Partly sunny.6 mph94%30.12 "HgN/A
1:30 pm66 °FLight rain. Partly sunny.6 mph88%30.12 "HgN/A
1:00 pm68 °FPartly sunny.3 mph83%30.12 "HgN/A
12:30 pm68 °FScattered clouds.6 mph83%30.12 "HgN/A
12:00 pm66 °FScattered clouds.6 mph88%30.12 "HgN/A
11:30 am64 °FMore clouds than sun.6 mph94%30.12 "HgN/A
10:30 am64 °FLight rain. Mostly cloudy.7 mph88%30.12 "HgN/A
10:00 am64 °FLight rain. More clouds than sun.9 mph88%30.12 "HgN/A
9:30 am64 °FLight rain. Broken clouds.9 mph88%30.09 "HgN/A
9:00 am64 °FLight rain. Broken clouds.8 mph88%30.07 "HgN/A
8:30 am66 °FPartly sunny.13 mph83%30.04 "HgN/A
8:00 am66 °FPartly sunny.8 mph83%30.04 "HgN/A
7:30 am66 °FMostly cloudy.10 mph83%30.01 "HgN/A
7:00 am64 °FMostly cloudy.6 mph88%30.01 "HgN/A
6:00 am64 °FMostly cloudy.10 mph88%30.01 "HgN/A
5:30 am64 °FMostly cloudy.9 mph88%30.01 "HgN/A
5:00 am64 °FMostly cloudy.8 mph88%30.01 "HgN/A
4:30 am64 °FLight rain. Mostly cloudy.2 mph88%30.04 "HgN/A
4:00 am64 °FLight rain. Mostly cloudy.5 mph94%30.04 "HgN/A
3:30 am64 °FThunderstorms. Mostly cloudy.8 mph94%30.04 "HgN/A
3:00 am64 °FStrong thunderstorms. Overcast.6 mph88%30.04 "Hg2 mi
2:00 am64 °FRain. Overcast.8 mph88%30.01 "HgN/A
1:30 am64 °FLight rain. Overcast.6 mph88%30.01 "HgN/A
1:00 am64 °FLight rain. Overcast.8 mph94%29.98 "HgN/A
12:30 am64 °FPassing clouds.8 mph94%29.98 "HgN/A
12:00 am64 °FPassing clouds.9 mph94%29.98 "HgN/A
Weather by CustomWeather, © 2019

See weather overview